RH
71 71 71 72 74 76 77 79 81 78 78 78 78 79 79 83 78 27 27 27 36 73 59 27 24 15 13 13 14 13 12 11 11 14 12 14 16 18 25 22 35 38 34 44 52
71 72 71 72 76 78 78 78 83 78 75 75 78 81 82 83 43 20 31 60 70 76 24 24 21 15 12 12 13 13 12 11 9 10 12 12 13 13 21 16 29 35 44 55 52
71 72 71 72 74 78 81 83 83 77 75 76 77 78 82 70 20 10 71 81 79 69 19 16 14 13 11 11 13 12 13 10 11 11 11 13 13 16 20 20 16 26 31 50 54
74 74 74 73 72 73 80 82 82 75 75 75 74 74 80 44 7 17 68 78 72 40 19 17 16 14 13 14 11 14 12 10 10 10 13 15 14 20 20 20 31 30 36 50 54
76 77 77 75 74 77 82 83 82 78 76 75 74 74 60 24 13 8 54 54 38 31 18 18 18 16 14 11 12 16 10 12 11 12 13 15 18 19 20 22 33 40 45 55 57
80 82 79 78 78 79 84 85 85 84 81 77 75 74 58 39 10 16 25 22 24 26 20 17 16 13 14 13 13 11 12 10 10 13 14 18 14 32 17 22 40 44 45 50 56
81 82 84 81 81 82 84 87 86 85 84 79 75 58 58 40 14 14 21 16 19 23 22 20 17 16 13 16 12 12 16 14 14 13 13 16 18 32 18 33 39 41 42 48 62
78 83 87 87 87 88 87 87 86 85 83 79 78 57 46 20 23 31 25 24 17 21 25 16 19 18 18 14 17 15 15 16 11 12 16 23 18 12 20 32 32 37 38 45 49
79 83 86 87 88 88 88 86 85 79 78 77 68 57 34 34 34 26 30 32 18 20 24 21 21 22 17 18 17 19 15 16 13 13 18 25 17 17 27 28 26 30 37 42 42
79 80 84 88 88 88 88 85 71 73 58 53 48 60 30 16 19 32 38 37 24 21 30 29 25 24 21 17 22 18 19 14 15 14 18 19 19 15 20 29 32 27 34 40 42
77 80 82 87 87 89 69 41 36 41 43 42 34 41 32 32 31 22 39 42 27 23 31 31 30 29 22 20 15 13 16 14 10 13 19 18 15 12 12 19 26 30 34 37 40
77 80 81 86 88 87 54 53 66 61 88 46 44 42 31 32 46 27 34 34 39 27 27 36 39 25 21 18 19 16 18 16 12 16 18 13 12 13 12 15 18 24 31 35 38
76 80 81 88 88 68 58 58 50 52 65 49 41 45 41 36 43 35 34 38 36 36 19 33 28 26 27 22 23 20 19 18 16 16 16 17 17 15 13 17 19 25 24 29 35
79 82 87 88 78 54 52 49 46 56 80 36 37 39 40 34 37 26 22 34 30 30 29 24 18 28 28 25 19 22 16 18 20 21 16 18 20 15 15 14 13 14 27 29 33
81 80 86 85 68 54 53 50 50 70 41 25 31 27 30 33 21 27 20 24 32 24 29 28 26 23 28 25 18 22 17 22 21 22 20 16 19 15 15 17 14 13 14 28 30
77 80 83 60 66 52 49 56 60 77 39 29 24 27 36 31 27 27 31 20 18 23 33 27 24 22 19 19 21 20 23 24 24 22 31 20 20 16 14 15 12 11 12 18 27
76 79 74 53 62 58 65 55 67 40 22 35 37 29 26 26 29 31 36 34 26 32 35 26 27 25 24 20 22 22 26 31 33 37 34 20 24 21 16 15 14 14 13 19 28
77 83 67 48 50 69 80 63 60 29 33 34 38 30 25 26 28 30 37 36 24 17 20 29 38 28 26 25 26 29 26 28 44 39 26 27 29 20 15 16 17 16 16 18 25
78 62 63 55 59 74 88 76 35 33 36 47 34 31 28 27 28 30 34 36 27 23 26 31 28 24 26 25 22 30 33 22 30 41 39 28 25 20 15 14 14 13 14 16 16
84 71 57 54 68 90 96 61 41 38 44 43 47 39 38 35 29 32 35 36 38 29 23 28 33 22 27 25 25 28 23 38 33 43 45 28 29 22 19 16 14 16 17 17 20
85 79 47 57 79 96 90 59 42 32 40 46 51 48 43 42 33 29 44 37 34 30 27 27 36 36 28 32 30 32 33 30 27 30 38 37 28 20 19 20 20 18 18 18 19
82 90 66 73 97 92 90 53 52 41 31 38 46 49 48 44 40 31 36 38 34 36 37 27 38 36 29 26 22 22 27 29 38 38 36 40 28 19 22 20 21 20 17 18 18
80 72 84 82 94 87 65 51 54 48 38 37 40 50 44 46 47 32 32 29 32 38 61 50 33 37 27 23 28 29 26 27 28 31 40 54 32 18 20 19 17 17 18 18 19
90 95 84 94 78 79 61 69 59 49 42 39 41 48 48 52 42 44 37 29 31 40 73 63 55 35 37 29 34 44 34 36 32 42 37 33 29 22 20 19 19 19 19 17 18
97 96 55 93 88 74 74 74 52 54 48 41 45 45 47 59 48 46 37 32 28 47 45 56 68 52 48 46 45 43 40 36 37 36 40 30 28 23 22 27 28 24 21 20 19
99 90 87 70 58 70 76 64 66 45 49 50 50 41 47 55 50 47 40 39 40 35 42 47 51 52 47 40 43 42 34 32 31 34 33 30 30 24 19 20 29 30 26 26 24
90 76 98 61 59 78 68 65 50 47 49 39 44 51 57 49 44 43 44 45 45 49 51 50 57 50 43 42 44 45 35 29 34 33 34 39 29 21 19 24 31 32 30 31 31
Wind_Speed
12 13 14 14 14 14 15 15 14 16 17 18 19 20 20 20 22 14 15 4 7 8 5 12 11 11 12 11 10 7 9 10 12 11 8 5 8 6 2 9 8 7 8 3 1
12 13 14 15 14 14 14 15 15 17 17 18 19 20 20 21 18 16 6 12 9 10 14 19 17 14 12 14 9 13 12 12 5 9 6 6 7 10 6 10 11 10 8 5 4
14 15 16 16 16 15 15 15 15 18 18 17 18 20 21 23 11 2 7 12 12 13 16 16 14 16 16 11 15 14 17 9 7 9 8 9 10 4 8 13 9 9 7 8 6
13 14 16 16 17 16 15 15 17 19 19 19 19 20 22 14 8 6 9 7 4 14 10 13 15 18 16 15 17 14 18 11 11 6 8 10 8 8 12 13 4 2 5 9 8
12 14 15 16 17 17 16 16 17 20 19 19 18 18 13 9 10 8 10 4 3 10 13 15 17 18 17 14 12 19 16 11 13 11 11 10 13 13 14 10 4 4 6 9 7
13 13 15 16 17 18 18 18 19 21 19 19 17 12 9 15 3 5 9 8 5 11 11 11 10 15 10 12 17 7 19 15 13 13 11 12 16 4 7 4 9 9 9 8 8
13 14 15 17 18 19 18 20 22 23 21 21 15 10 10 19 6 7 10 11 10 11 14 12 11 10 7 10 14 11 12 14 15 14 15 10 16 15 14 7 10 12 10 9 9
14 13 14 15 16 17 19 20 23 24 23 16 8 9 11 12 9 6 7 11 14 12 11 11 11 13 10 3 5 15 14 17 15 12 7 11 18 6 4 9 10 12 11 11 11
14 14 14 16 17 18 20 23 24 18 13 3 7 8 10 3 8 4 2 9 8 13 12 8 8 14 13 13 12 13 15 18 12 11 6 13 11 4 4 8 10 11 12 11 10
13 14 14 15 16 18 20 25 16 6 2 4 2 7 11 5 4 1 7 7 6 9 11 12 10 13 15 16 17 15 16 14 14 10 12 13 16 11 8 10 10 10 12 13 12
14 15 16 15 16 17 17 8 3 5 4 8 13 15 15 10 9 5 7 6 7 16 18 18 15 20 23 21 19 13 12 15 10 5 6 13 16 14 6 9 10 11 13 14 14
14 14 16 16 16 15 10 6 5 6 15 17 23 25 23 15 8 7 4 6 10 15 20 12 20 18 16 19 20 18 15 14 8 5 8 13 16 14 12 7 8 11 13 15 14
13 13 16 15 16 7 6 4 6 10 9 12 9 9 9 16 9 7 9 10 12 18 18 21 5 15 15 16 19 20 20 15 14 2 10 9 15 18 14 7 7 9 11 13 16
13 13 13 15 8 6 3 4 9 6 6 3 3 2 5 5 9 21 7 10 9 13 16 15 24 6 20 22 19 20 19 16 11 11 10 3 13 16 9 16 12 11 12 13 17
12 13 12 9 9 5 8 9 11 3 8 5 3 3 8 8 8 4 25 23 23 19 8 15 11 20 17 18 18 16 7 12 15 13 12 14 10 13 5 13 13 12 12 14 15
13 12 11 5 4 5 7 11 5 5 5 2 2 4 3 10 6 2 3 16 16 20 17 20 3 13 21 13 12 8 7 7 8 10 13 14 13 8 11 9 4 5 7 8 14
12 11 10 6 4 2 8 6 5 7 4 4 5 11 11 6 4 8 9 19 12 17 19 17 17 8 10 19 13 15 13 8 9 9 10 4 11 14 11 12 11 10 11 7 11
11 11 6 7 5 5 3 5 9 2 5 6 6 14 4 7 1 7 6 12 19 17 9 15 9 15 12 13 11 18 19 8 9 10 9 9 9 7 3 5 6 6 7 5 10
11 6 6 6 8 5 2 8 3 4 3 8 12 6 2 5 6 3 4 3 7 15 11 12 18 11 12 11 15 13 20 16 9 1 5 7 7 11 11 10 11 9 8 12 11
5 6 10 7 9 6 4 8 6 5 2 3 5 4 5 8 7 5 5 7 6 8 11 5 7 11 17 17 16 10 10 9 10 13 12 9 8 7 4 10 2 4 5 4 6
4 4 2 9 8 4 8 9 11 12 5 3 3 6 5 6 8 7 7 6 12 12 13 7 6 6 11 15 18 15 13 9 7 13 11 10 6 5 9 6 4 3 7 5 2
4 5 5 10 6 3 6 8 7 10 14 10 6 7 9 9 8 5 2 5 14 17 7 10 4 8 9 4 8 16 16 19 11 10 7 8 8 9 6 10 6 11 11 8 2
5 5 4 8 7 10 6 15 11 11 12 9 10 4 3 5 6 5 3 4 10 12 12 2 8 6 11 11 4 9 5 8 12 12 13 8 4 4 8 11 12 12 12 10 4
3 4 6 6 8 7 17 14 14 14 16 11 7 6 8 11 11 8 8 3 11 8 13 6 4 9 8 2 2 7 8 4 9 8 10 13 12 9 12 13 15 15 14 15 11
5 5 6 6 11 16 12 6 20 15 15 12 9 15 13 11 10 11 13 13 5 7 6 3 3 1 2 2 1 3 4 4 8 8 7 5 10 9 7 8 12 15 15 14 13
4 5 4 8 8 15 15 16 18 17 12 12 15 10 13 17 17 12 8 6 6 4 7 7 2 4 2 3 3 5 6 8 7 9 9 11 12 1 9 9 9 13 15 16 16
6 7 2 11 15 12 14 17 19 20 13 17 13 11 13 13 12 11 12 11 12 8 5 5 4 5 8 2 3 8 13 10 7 7 7 8 2 7 10 10 12 15 13 13 15
Wind_Direction
350 347 343 339 337 333 334 331 327 328 326 325 321 320 319 313 308 291 261 296 169 159 234 165 194 189 195 212 230 247 241 239 221 216 210 185 254 149 309 263 211 215 270 351 162
344 342 339 337 334 331 332 330 327 327 327 326 321 316 315 313 301 283 296 279 231 188 200 190 194 187 197 211 207 224 236 246 241 215 251 262 286 305 245 241 232 235 231 228 234
340 341 334 331 329 329 329 324 322 323 322 321 322 318 315 309 294 95 359 314 213 194 221 208 213 198 216 209 209 221 249 226 212 231 277 287 284 230 253 266 281 247 229 198 214
333 331 330 327 326 324 321 316 314 315 312 313 321 319 315 285 291 42 353 25 173 203 219 193 199 207 217 208 212 245 238 243 226 237 242 262 298 261 252 271 325 231 196 180 202
325 323 320 320 321 320 316 314 313 305 307 311 312 318 316 250 265 337 334 34 166 199 212 196 202 212 225 221 214 232 250 232 234 237 249 273 262 275 269 255 226 195 185 185 197
329 316 316 315 316 316 315 311 305 298 301 301 299 300 275 262 248 293 332 330 276 229 237 218 218 219 276 235 221 212 238 243 236 237 245 249 267 254 265 244 194 200 194 187 202
317 316 315 313 314 316 315 309 302 298 297 297 288 257 253 252 241 282 306 293 303 264 252 246 248 229 239 243 231 237 243 226 229 236 247 252 256 234 267 187 208 208 197 186 201
333 327 317 313 314 314 310 302 296 300 302 295 261 210 255 240 239 222 267 272 249 254 258 265 246 249 244 277 215 229 235 252 227 215 214 222 262 202 154 188 212 214 204 199 199
327 327 327 320 322 315 310 302 298 303 306 128 160 225 258 107 239 213 185 248 263 231 237 263 217 226 209 232 225 215 240 222 224 204 171 216 257 130 185 217 238 211 214 204 203
331 332 328 324 322 316 310 295 294 247 172 166 306 225 241 242 159 128 131 218 219 196 211 221 213 215 218 212 222 224 224 243 239 163 212 219 254 254 205 237 239 220 215 210 208
329 334 331 328 325 320 316 302 314 198 348 272 281 255 293 338 284 179 146 183 209 202 204 200 212 215 215 220 234 264 250 250 235 172 220 241 256 270 235 220 232 224 215 217 211
326 331 331 328 321 320 304 58 70 309 295 271 259 260 264 293 296 213 166 214 205 215 210 191 229 226 235 222 231 233 242 241 258 237 232 254 255 263 274 247 242 231 219 220 204
322 328 327 324 312 283 343 55 350 332 277 303 279 267 245 216 239 235 159 232 231 228 214 224 210 220 218 216 224 228 235 242 260 207 234 266 258 250 242 227 235 227 241 215 209
317 323 323 321 277 332 319 337 327 325 284 273 267 254 182 220 232 230 218 229 226 243 219 238 241 213 213 225 219 230 225 249 254 262 261 198 266 259 247 266 228 241 214 218 209
312 317 318 314 304 288 334 325 315 219 301 12 99 99 159 212 332 178 209 220 240 251 215 230 231 225 227 232 228 248 242 232 241 252 269 253 252 257 259 260 253 233 210 210 209
305 311 319 256 255 305 317 309 260 235 257 335 2 344 246 227 267 115 190 207 227 228 241 258 204 235 230 224 223 237 190 210 223 238 245 244 242 255 252 251 281 223 229 205 206
306 314 302 294 293 342 306 283 218 239 33 353 332 325 315 288 229 218 177 198 190 200 228 227 236 229 237 223 215 214 204 217 220 205 239 183 233 241 286 269 267 273 276 169 195
304 308 257 260 271 246 298 223 235 87 271 333 313 311 294 357 248 200 204 202 227 210 223 221 207 205 194 213 193 198 196 209 214 217 232 152 241 250 254 314 274 262 270 227 199
309 270 255 233 220 211 224 214 250 245 356 324 313 311 345 19 336 223 207 256 229 217 224 209 239 178 209 197 200 201 227 248 263 260 273 199 230 265 235 253 248 260 277 252 217
287 268 256 210 189 174 203 239 228 233 346 314 283 356 317 346 359 352 203 32 337 273 225 253 241 202 194 201 218 213 169 185 222 233 230 226 243 257 278 296 273 312 330 325 220
265 255 219 175 169 192 219 220 236 240 247 278 282 285 301 327 332 341 13 84 3 341 228 247 264 154 164 203 204 204 221 235 248 225 245 246 228 193 247 352 327 3 348 353 219
241 232 125 157 180 189 213 215 251 234 234 240 264 267 273 305 301 304 330 10 343 341 197 205 305 225 191 97 262 213 226 222 229 194 238 269 247 150 332 308 317 313 326 324 30
228 234 148 199 211 219 232 222 237 229 226 222 230 235 280 279 292 296 320 11 9 360 347 7 212 214 235 221 200 203 197 265 241 265 245 225 208 262 308 314 313 320 327 329 343
250 230 201 201 233 245 217 218 221 229 240 237 252 225 259 258 251 275 291 335 347 0 304 276 221 231 235 207 121 192 192 200 225 230 239 247 265 260 278 304 324 329 334 324 314
205 230 226 184 218 229 235 274 220 216 219 223 235 240 246 254 238 253 266 280 285 10 353 37 296 227 77 81 106 147 181 193 227 243 250 253 239 250 281 324 307 311 312 321 322
219 206 215 261 232 205 222 230 239 222 201 211 232 224 233 243 251 269 264 266 297 332 351 346 246 284 188 161 215 251 237 247 244 236 251 253 259 45 301 300 320 318 316 318 324
200 225 288 233 228 223 228 230 230 231 233 240 230 237 244 254 273 280 285 276 274 291 317 310 258 234 253 184 281 264 234 233 203 203 227 221 240 334 309 325 341 332 342 338 327